Location: Warszawa
(52.2463°N, 21.0173°E)
Time: 01:53:23
(UTC+01:00)

ISS - Visible Passes

Search period start: 12 December 2017 00:00
Search period end: 22 December 2017 00:00
Orbit: 403 x 407 km, 51.6° (Epoch: 12 December)

Date Brightness Start Highest point End Pass type
(mag) Time Alt. Az. Time Alt. Az. Time Alt. Az.
12 Dec -2.6 17:21:07 10° W 17:24:14 38° SSW 17:26:01 20° SSE visible
13 Dec -3.0 16:28:53 10° W 16:32:06 53° SSW 16:35:19 10° ESE visible
13 Dec -1.2 18:05:57 10° WSW 18:08:05 16° SW 18:09:07 14° SSW visible
14 Dec -1.5 17:13:21 10° W 17:16:04 24° SSW 17:18:47 10° SSE visible
15 Dec -2.1 16:20:57 10° W 16:23:59 34° SSW 16:27:00 10° SE visible
16 Dec -0.7 17:05:57 10° WSW 17:07:45 14° SW 17:09:32 10° S visible
17 Dec -0.9 16:13:09 10° W 16:15:42 21° SW 16:18:15 10° SSE visible
19 Dec -0.2 16:05:59 10° WSW 16:07:17 12° SW 16:08:35 10° SSW visible
